Wind_Speed
32 31 32 31 30 31 31 31 31 29 29 29 28 27 27 26 25 24 24 22 21 21 20 20 20 21 22 23 23 22 21 19 17 15 12 10 9 9 10 11 10 9 9 9 9 8 9 9 9 8 8 8 7 7 8 9 10 11 11 11 12 11 11 9 6 5 7 6 6 7 7 7 7 7 6 6 6 5 5 6 6 7 6 6 8
33 31 31 31 31 31 32 31 31 31 30 30 29 28 27 26 25 24 24 22 21 22 21 20 21 22 23 24 24 22 21 19 18 16 12 10 11 11 10 10 10 10 9 9 9 9 9 9 8 8 8 7 7 7 9 10 11 11 11 11 11 11 11 9 7 6 7 7 8 7 7 8 7 7 7 6 5 5 6 6 6 6 5 5 6
32 30 29 30 31 32 32 32 32 32 31 31 31 28 27 27 25 23 24 22 22 23 21 21 23 23 23 24 24 22 20 19 19 16 12 11 12 12 11 11 11 11 11 11 11 11 10 9 8 8 7 6 7 7 8 9 10 11 11 11 10 10 10 9 7 6 7 8 9 8 8 9 8 7 6 6 5 5 6 5 5 5 5 6 5
30 30 29 30 31 31 33 33 33 33 32 32 32 29 28 29 26 24 24 23 23 23 21 21 22 23 23 24 25 23 19 18 19 15 13 13 12 11 12 11 11 11 12 11 11 11 10 9 8 8 7 7 7 7 7 8 9 9 10 10 10 9 9 9 8 6 6 7 8 8 8 8 8 6 5 5 5 5 5 5 6 6 6 6 6
31 30 29 29 31 32 33 34 34 34 33 32 32 30 29 30 27 25 25 24 24 25 23 21 21 22 24 24 24 23 19 17 16 14 14 14 12 12 12 12 12 11 11 11 11 11 10 9 8 8 8 8 8 7 7 8 8 8 9 9 9 9 8 8 8 7 6 7 7 8 7 7 6 6 5 5 5 6 6 5 5 6 6 6 6
32 32 31 30 31 33 34 33 33 34 33 32 33 32 30 29 28 26 25 24 25 26 24 21 21 22 24 24 24 22 18 16 16 15 14 14 13 13 12 12 11 11 11 11 11 10 10 9 9 9 9 9 8 7 7 7 7 7 8 8 8 8 8 8 8 7 7 7 7 8 8 7 6 5 6 5 5 5 5 5 5 5 5 5 6
32 33 32 29 29 33 34 34 34 35 33 32 32 32 31 30 28 26 25 24 25 25 23 22 23 22 23 24 24 21 18 16 16 15 14 14 14 13 13 13 11 11 11 11 10 10 9 9 9 10 9 8 8 7 7 7 6 6 8 8 8 8 8 9 8 7 7 7 8 8 8 7 6 6 5 4 5 5 5 5 5 5 4 4 5
31 31 31 29 29 33 35 34 34 34 34 33 32 31 31 30 28 26 25 24 24 24 22 23 24 23 24 26 25 22 19 17 16 16 15 14 14 14 14 13 12 11 11 11 11 10 10 10 10 10 9 8 8 8 7 7 6 7 7 8 8 9 9 9 8 8 8 8 8 7 7 7 7 6 4 4 6 5 3 4 5 4 4 5 5
32 31 31 29 30 33 35 35 34 34 35 35 34 32 31 29 28 26 24 24 26 25 22 23 24 24 25 26 26 24 21 18 17 17 16 15 15 14 14 14 13 13 12 11 11 11 11 10 10 10 10 10 10 10 9 8 7 7 7 8 9 9 9 8 7 8 9 8 8 7 7 7 7 6 6 5 4 2 1 3 5 5 5 5 5
32 32 32 30 29 32 37 38 37 36 36 33 32 31 30 30 29 27 24 24 26 25 22 23 24 25 26 26 25 24 21 18 19 20 18 17 16 15 15 14 14 13 13 12 12 12 11 11 11 13 13 12 11 10 9 9 9 8 8 9 9 10 9 7 7 8 8 7 8 7 7 6 6 6 5 4 3 2 3 3 4 4 4 6 5
32 33 33 32 30 31 35 38 38 37 34 31 30 30 31 32 30 27 25 24 23 23 23 23 24 26 28 27 25 24 20 19 22 23 20 19 17 15 14 15 14 14 13 13 13 12 12 11 11 14 14 12 12 11 10 9 9 9 10 10 11 12 10 8 9 9 8 7 7 6 7 6 5 5 4 3 4 3 3 3 3 4 4 5 4
33 34 33 31 30 33 36 39 41 39 34 30 29 30 31 31 29 27 25 24 23 24 24 24 25 28 29 27 26 23 20 21 24 22 20 20 18 16 14 15 15 14 13 13 13 13 13 12 11 13 14 13 13 12 12 11 10 10 10 10 13 14 13 12 11 9 8 8 7 6 6 5 4 4 4 3 3 3 3 3 2 3 4 4 5
33 34 33 30 32 37 40 41 43 40 33 29 29 30 29 28 27 27 26 24 23 24 24 24 25 29 29 25 24 21 20 23 24 21 20 20 20 17 14 14 15 14 13 13 13 13 14 13 13 12 14 15 14 12 12 13 12 11 10 11 13 14 14 16 14 10 7 6 5 6 5 4 4 4 4 3 2 3 3 3 2 3 5 5 5
33 34 32 32 36 39 37 39 42 39 32 29 29 28 27 25 26 26 24 23 23 24 26 24 25 29 29 25 22 20 21 24 24 21 21 21 21 18 13 13 14 13 13 14 13 14 15 14 14 13 14 16 15 13 12 13 12 11 11 11 12 13 15 17 17 14 11 7 5 4 4 4 4 3 4 4 3 3 3 3 3 4 6 6 6
33 33 31 34 39 37 34 35 36 32 28 27 26 26 25 24 25 25 24 24 23 24 26 25 26 30 27 23 22 21 22 25 23 22 22 22 23 18 13 13 14 13 14 15 14 15 15 15 14 14 14 15 16 15 13 12 11 11 10 11 11 11 13 15 17 16 13 10 5 3 4 6 5 5 5 5 4 4 4 4 5 6 7 9 9
33 32 31 36 39 34 30 31 30 27 27 26 26 26 25 24 24 25 24 23 23 24 25 24 26 28 26 24 23 21 23 25 24 23 24 24 24 19 13 13 15 14 14 15 15 15 15 15 15 14 13 14 17 18 16 12 11 11 10 11 11 10 11 15 18 17 14 12 9 7 7 9 10 9 7 6 6 6 5 6 7 8 8 8 7
33 32 33 36 36 32 30 28 27 27 27 27 26 26 25 24 24 25 24 24 23 25 26 24 25 27 26 26 24 21 24 26 24 24 25 25 25 20 14 14 15 14 15 15 15 15 15 15 15 14 14 15 17 19 18 14 12 11 11 11 11 11 11 13 17 18 16 14 13 12 12 11 12 12 10 8 9 8 7 7 7 7 7 8 6
33 34 34 33 32 31 30 29 28 29 28 28 27 26 25 25 25 25 26 25 23 25 27 25 24 25 26 26 24 24 27 27 24 25 26 27 27 21 15 15 16 15 15 15 15 15 15 17 16 13 13 15 17 17 17 15 13 11 11 12 11 12 12 11 12 15 16 15 14 13 13 13 13 14 12 10 10 10 10 9 8 7 7 7 6
33 35 35 33 30 29 28 28 30 30 28 28 27 25 25 25 25 25 25 24 24 26 25 22 21 22 23 25 26 28 29 27 26 27 27 29 28 21 15 16 16 15 16 15 15 14 14 17 19 15 13 16 17 16 15 15 13 11 11 12 12 13 13 11 10 11 13 14 13 12 13 13 14 15 14 13 12 11 13 13 10 8 8 8 7
34 35 35 33 30 28 27 29 33 31 28 28 27 25 25 25 25 26 25 24 25 27 23 20 20 20 21 25 29 30 29 28 28 29 28 30 29 22 16 16 16 16 16 16 15 15 13 14 19 20 18 17 17 15 14 14 13 12 11 13 13 12 11 12 12 11 10 10 9 10 11 11 12 13 14 15 14 13 15 15 13 10 9 9 8
33 35 35 33 31 28 26 31 37 34 28 28 27 24 25 26 25 26 25 24 26 28 25 21 20 19 20 26 30 29 28 29 30 30 30 31 31 24 17 15 17 16 16 15 15 15 14 13 16 22 22 20 17 15 13 13 13 13 12 13 13 12 11 9 10 10 9 8 9 10 11 11 12 12 13 14 15 15 15 16 15 13 11 10 9
32 33 33 32 30 26 26 33 41 37 29 28 27 23 24 25 25 25 25 25 29 32 28 21 20 19 19 25 30 28 28 30 31 32 32 31 32 28 19 15 16 16 15 15 14 14 15 14 15 19 22 21 20 18 14 12 13 14 14 14 14 15 12 8 6 7 8 9 10 12 13 12 12 12 12 13 13 14 14 14 14 14 12 11 10
32 33 33 30 27 26 28 35 41 39 33 29 26 24 25 26 25 26 27 29 32 32 26 20 20 18 18 22 28 29 28 30 31 32 32 30 31 31 23 16 16 16 13 14 14 13 14 14 14 16 18 19 20 19 16 14 14 15 16 17 17 18 16 10 6 6 8 9 11 13 13 12 12 11 12 12 13 13 13 13 13 13 13 12 11
31 32 32 28 26 28 33 38 40 39 36 30 25 23 26 26 25 25 29 33 35 30 23 20 19 18 18 23 26 26 28 31 31 31 32 30 31 32 26 19 18 18 13 12 14 13 12 13 15 16 16 17 18 17 16 15 15 14 15 18 20 20 17 12 9 8 9 10 12 12 12 12 12 11 11 11 11 10 11 11 12 12 12 12 12
30 29 29 29 29 32 35 36 36 35 32 29 25 23 25 26 25 24 26 33 35 29 23 21 20 19 21 22 23 23 26 30 31 31 31 30 30 31 28 24 22 20 15 11 12 12 12 13 15 15 15 17 17 16 15 15 15 15 14 16 18 19 16 13 11 11 11 11 12 12 12 12 12 12 11 9 8 7 9 10 11 12 12 12 12
28 26 27 31 33 35 34 33 34 32 27 24 23 22 24 25 25 25 26 29 31 27 22 20 20 20 22 22 21 22 23 25 29 32 32 31 29 28 28 26 25 22 18 13 12 13 14 14 14 13 13 16 18 18 16 15 15 16 16 16 17 16 15 14 14 13 12 12 12 12 12 12 12 11 10 9 9 10 11 12 12 13 12 11 11
26 27 31 34 35 37 38 37 38 37 33 28 24 23 24 24 24 26 27 27 26 23 22 22 22 21 21 21 21 22 22 21 24 31 34 34 32 29 29 29 28 26 22 17 13 13 15 15 15 13 13 15 16 16 15 14 15 16 18 18 18 17 16 16 15 14 14 13 13 12 11 11 10 10 9 10 12 13 14 13 13 12 11 9 9
25 28 34 35 33 36 40 40 39 38 35 32 28 25 26 26 26 30 34 33 30 25 22 23 23 23 24 24 22 22 23 21 24 32 38 37 34 32 31 32 31 29 24 19 15 13 14 16 16 14 14 14 14 14 13 13 13 14 16 17 18 19 19 18 16 16 15 14 13 12 10 10 10 10 11 11 12 13 14 14 13 12 10 9 9
27 27 30 31 32 33 36 37 38 36 33 31 28 26 27 27 28 33 39 42 42 37 29 24 25 26 28 29 27 25 23 23 27 37 41 39 36 35 35 34 33 29 25 22 18 14 14 15 15 15 14 14 14 14 13 13 13 13 14 15 16 17 19 18 17 17 16 15 14 12 11 11 11 11 12 12 12 13 13 13 13 12 10 10 11
27 28 29 30 32 32 33 34 35 31 29 28 27 26 26 26 28 33 38 41 45 46 41 37 35 32 30 30 30 28 25 26 32 39 41 40 38 37 35 34 32 29 27 25 21 16 15 16 15 15 16 15 15 15 14 14 14 13 14 15 16 16 17 18 18 18 17 16 15 14 13 12 12 12 12 12 12 12 13 13 13 12 12 12 12
24 26 29 30 31 32 31 32 31 27 26 28 26 24 24 23 23 27 32 36 41 43 43 40 36 32 28 27 28 27 26 29 35 39 39 39 37 34 32 31 29 27 26 26 22 16 15 16 15 15 16 16 16 16 15 15 14 13 13 15 16 17 17 17 17 17 16 16 16 15 14 13 12 12 12 11 11 11 12 13 13 13 13 13 13
23 25 27 29 32 32 29 28 27 25 25 26 25 23 23 22 18 16 20 28 33 36 36 34 30 29 27 25 28 30 29 30 33 35 35 36 35 32 30 28 27 26 25 25 21 16 15 15 15 16 16 16 16 16 15 15 14 14 14 15 16 17 18 17 17 16 16 16 16 15 15 14 13 13 12 11 11 11 12 13 13 14 15 15 14
23 23 22 23 27 29 26 24 23 23 23 25 26 25 24 23 20 16 16 20 24 26 28 28 29 31 28 25 29 34 33 28 27 28 30 31 31 30 29 26 24 24 25 24 19 16 16 16 16 16 16 16 15 15 15 15 14 14 15 15 16 16 17 17 17 16 16 16 15 15 16 16 16 14 13 12 12 12 12 13 14 14 15 15 14
23 21 19 18 20 22 23 22 20 20 21 24 26 27 26 26 25 23 21 19 17 18 21 22 24 28 29 27 29 32 30 26 23 23 25 28 29 30 29 25 23 23 24 22 18 16 17 17 16 16 16 15 15 14 14 14 15 15 15 15 15 15 16 16 17 16 16 15 14 14 15 16 15 15 14 13 13 13 12 13 14 15 15 15 14
20 21 22 22 20 18 20 21 20 21 24 26 28 28 27 27 27 27 26 23 18 16 18 20 22 24 27 27 27 25 24 24 22 21 23 26 28 29 28 24 21 22 22 21 18 17 17 16 16 15 15 14 14 14 13 14 14 15 15 15 15 15 15 15 15 15 14 15 14 14 15 15 14 15 15 14 13 13 13 13 14 15 15 16 15
19 22 26 27 25 21 20 20 20 22 25 27 29 29 29 28 28 28 27 25 22 18 17 19 22 23 22 22 23 21 21 22 23 23 23 26 29 30 27 22 20 20 20 19 18 17 17 16 15 15 15 14 13 13 13 14 14 15 15 15 14 15 15 14 15 15 14 14 14 14 14 14 14 15 15 14 13 13 13 13 14 14 15 15 15
20 24 28 29 27 25 22 20 21 22 25 27 28 29 28 28 28 28 25 23 22 19 16 18 22 23 21 20 21 21 21 22 23 23 23 25 29 29 25 21 20 19 19 19 18 17 16 16 15 15 14 14 14 13 13 14 14 14 14 14 14 14 15 15 14 14 14 14 14 14 15 15 15 15 15 14 14 13 13 13 13 13 14 15 15
19 24 28 28 27 25 23 23 23 24 26 27 28 27 26 25 26 27 26 24 23 20 18 20 23 22 22 24 24 24 23 23 22 22 23 26 30 27 21 19 20 19 18 19 19 17 16 15 15 14 14 14 14 14 13 14 14 14 14 15 14 13 14 13 13 13 13 13 14 15 15 16 16 16 15 15 14 14 13 13 12 12 13 14 15
14 20 25 27 27 26 25 25 25 26 27 27 27 27 26 26 25 25 25 26 25 21 19 20 20 19 22 27 28 28 26 24 23 24 25 27 28 25 19 17 19 19 18 17 18 17 16 15 14 15 15 14 14 14 14 14 14 14 14 14 14 13 13 14 13 13 14 14 14 15 16 16 17 16 16 16 16 15 13 12 11 11 12 14 15
12 17 22 23 23 24 25 26 26 26 27 28 27 25 25 26 26 24 23 25 26 24 21 21 19 19 23 30 33 32 28 23 21 23 24 24 25 23 20 18 18 18 16 16 16 16 17 16 15 14 15 14 14 14 14 14 14 14 14 14 14 13 14 14 14 14 14 14 14 15 16 17 17 17 17 17 17 16 14 12 10 11 13 14 15
12 15 18 19 19 21 23 23 24 24 26 27 26 25 24 24 25 25 24 23 24 24 22 21 20 21 26 33 38 36 29 23 21 22 24 25 24 22 19 17 18 17 15 15 15 15 15 16 15 14 14 15 15 15 15 14 14 14 13 13 14 14 14 14 14 14 14 14 14 15 15 16 17 17 17 17 16 16 15 13 12 12 13 14 16
12 16 18 18 18 20 21 21 22 23 25 26 26 25 24 24 23 24 25 24 24 24 21 20 21 23 27 35 40 36 26 21 21 22 24 26 26 24 23 23 22 19 16 15 15 15 15 15 16 15 15 15 15 15 15 15 14 14 13 14 14 15 15 14 15 16 16 14 14 15 15 15 15 16 16 16 16 16 16 15 14 13 13 14 15
11 15 18 18 18 18 18 19 21 22 23 24 23 23 24 24 22 22 24 25 25 24 23 23 24 25 27 35 39 32 23 21 25 27 28 30 30 29 29 27 23 19 16 14 15 15 15 16 16 15 14 14 14 14 15 15 15 15 14 14 15 16 16 15 14 16 17 15 14 14 15 15 14 15 15 15 16 17 16 15 15 14 13 13 14
11 14 15 15 15 15 16 17 19 21 22 22 22 22 23 22 21 21 22 23 21 20 21 24 26 27 29 35 36 28 21 22 25 24 24 27 28 27 25 22 19 17 16 16 15 15 15 15 15 14 13 14 14 14 15 15 15 16 15 15 16 17 18 18 16 14 15 15 14 14 14 15 15 15 15 15 16 16 16 15 14 13 12 13 14
10 13 15 14 14 14 15 16 18 19 20 21 21 20 19 19 19 19 21 21 20 17 16 18 23 26 29 33 33 26 21 21 21 18 17 19 21 20 19 19 18 17 17 16 15 16 15 15 14 14 14 14 13 14 15 15 15 15 16 16 17 18 20 21 19 15 14 14 14 13 14 14 15 15 15 15 15 16 16 16 15 14 13 14 15
11 13 15 16 15 16 16 16 17 18 19 19 20 19 18 17 17 18 19 20 21 19 18 19 21 22 23 26 27 24 20 18 17 16 15 16 16 17 16 17 18 20 20 19 18 19 19 19 18 18 18 17 14 13 14 14 14 15 16 15 16 17 17 18 17 15 15 15 15 14 13 13 13 14 14 14 14 15 16 16 16 15 15 15 16
11 12 13 15 16 17 18 18 18 17 16 16 18 18 16 16 16 17 18 20 20 19 19 20 20 18 17 18 20 20 17 15 14 14 15 15 15 16 17 18 20 22 23 23 22 22 23 22 20 19 20 20 16 13 13 14 14 14 15 15 15 15 15 15 15 15 15 16 16 15 14 13 12 13 14 14 14 14 14 16 16 16 16 16 16
9 9 10 12 14 16 18 19 19 18 17 17 18 18 16 16 16 16 16 17 16 15 14 14 14 13 14 15 17 17 17 16 15 15 15 16 17 19 20 20 21 21 22 23 23 23 23 22 20 19 21 22 20 15 14 14 14 14 14 15 15 16 16 16 14 14 14 14 15 14 14 13 12 11 12 13 15 14 14 15 16 16 16 17 16
7 9 10 10 10 12 13 14 15 15 16 17 18 18 16 15 14 14 14 13 13 12 11 11 11 11 12 14 16 18 19 19 18 17 16 16 17 19 21 22 22 22 23 23 24 23 21 20 20 20 21 22 21 18 15 14 14 14 14 14 15 18 20 19 16 14 13 13 13 13 14 13 13 12 11 12 14 15 14 15 16 17 17 16 16
7 10 12 12 12 12 14 14 13 11 11 14 15 15 14 13 12 11 12 12 12 11 10 11 12 12 12 12 13 15 16 17 16 14 13 13 15 18 21 23 23 24 24 25 25 24 22 19 19 21 21 21 20 19 17 15 15 14 14 15 17 20 22 22 20 19 17 13 12 12 13 13 12 12 11 11 13 14 14 14 16 17 16 15 14
6 8 10 11 12 12 13 14 14 13 12 12 13 13 13 12 11 10 10 11 11 10 10 10 11 11 11 11 12 12 13 13 13 12 12 13 15 17 21 22 24 25 27 27 25 24 22 20 20 22 23 22 20 19 16 14 14 14 15 17 19 20 19 20 21 22 20 16 13 12 13 12 12 12 11 10 11 13 13 12 13 14 14 13 12
Wind_Direction
196 196 195 195 195 192 190 190 192 192 191 191 188 188 188 187 189 189 187 189 189 188 190 191 188 187 193 199 200 200 204 208 214 215 208 203 204 208 213 210 199 194 194 195 201 201 201 206 202 197 202 201 201 202 201 204 204 207 209 205 209 212 209 225 233 170 158 177 189 194 198 204 221 229 226 227 232 243 248 247 254 264 267 255 249
196 196 194 194 194 192 189 188 189 191 191 188 188 189 186 184 186 186 187 190 190 189 191 191 187 187 195 200 201 204 205 208 216 217 207 201 207 208 201 196 194 189 186 189 194 196 197 198 193 190 195 196 199 201 200 202 202 203 206 207 209 210 209 220 226 186 170 177 186 194 198 209 225 226 223 231 234 243 252 250 253 255 261 273 256
196 195 194 194 193 191 189 187 187 190 190 189 190 189 184 184 187 186 187 189 191 191 190 188 187 188 193 196 199 203 206 211 218 217 207 204 208 207 199 194 192 186 184 189 190 190 190 189 187 187 188 187 193 199 198 199 203 204 204 206 209 207 206 213 219 203 187 182 188 200 203 210 225 229 222 225 233 254 264 255 261 265 256 266 265
195 195 195 195 193 190 189 187 186 188 189 189 191 187 182 184 187 186 188 189 190 190 188 187 187 187 188 191 195 200 205 213 217 214 208 206 203 199 197 194 193 188 186 187 187 186 185 184 184 182 183 185 189 194 193 195 201 203 200 202 202 198 197 204 214 215 203 190 195 208 208 207 222 231 227 229 233 249 262 256 263 264 245 251 262
195 195 194 193 191 190 189 186 185 187 187 187 190 186 181 183 185 186 190 190 188 190 191 188 186 184 187 191 194 197 201 206 208 205 205 205 199 194 194 194 193 190 185 183 183 183 182 180 179 178 181 185 187 189 189 190 193 195 196 198 196 192 192 199 210 214 210 204 200 203 204 204 217 229 235 246 249 247 244 238 252 260 250 252 254
196 195 194 192 190 190 189 186 186 187 185 185 188 185 179 182 184 186 190 190 188 191 193 189 185 186 189 193 195 196 197 200 201 199 199 199 197 194 192 192 192 188 182 181 182 182 179 177 177 179 183 186 183 179 178 181 188 192 191 194 191 185 186 195 202 204 211 214 201 195 201 203 212 229 234 245 265 272 261 246 243 245 246 252 251
197 196 194 189 188 191 190 187 187 187 184 183 185 183 180 183 185 185 190 191 187 189 190 190 191 189 189 194 196 194 193 197 198 193 191 193 192 190 189 187 187 184 180 180 180 178 175 175 179 183 186 186 178 173 171 174 184 185 183 189 186 176 181 189 186 187 206 212 199 197 202 200 211 232 228 233 260 271 272 273 263 239 233 250 254
197 196 192 185 187 191 189 185 185 185 183 182 183 182 181 185 186 186 189 188 185 185 185 189 191 188 190 196 196 192 192 194 195 190 188 189 187 185 185 183 183 181 178 179 178 175 174 178 183 186 186 182 173 169 170 171 177 181 180 181 179 175 180 179 170 178 200 207 201 201 201 199 210 223 219 234 253 250 248 286 286 268 263 261 246
197 196 193 188 188 190 187 185 185 184 183 183 183 183 184 185 186 186 185 184 186 186 183 186 187 186 190 195 195 195 195 193 193 189 185 186 185 184 183 182 181 179 177 179 176 174 177 180 185 189 187 183 176 170 172 172 173 180 182 179 178 176 172 164 172 193 202 203 202 200 201 207 211 214 218 231 248 263 262 276 279 271 279 273 239
196 195 194 191 188 187 186 186 186 183 180 180 182 184 185 186 186 186 183 183 189 188 185 186 188 188 191 190 192 197 197 194 196 192 185 184 182 180 181 180 181 180 178 178 175 176 181 181 188 196 194 187 180 175 176 177 176 179 180 179 178 173 163 165 197 211 207 206 207 202 208 216 212 214 225 228 234 263 259 257 274 274 275 273 241
195 194 194 191 186 183 181 181 181 180 178 179 182 185 186 185 187 186 180 180 186 187 186 186 186 191 193 191 192 196 195 198 202 199 193 188 180 176 179 178 180 181 179 178 176 178 182 182 191 200 198 190 186 185 184 184 189 191 187 187 187 179 173 185 207 212 213 217 209 204 216 219 207 209 222 222 219 233 249 261 283 284 279 286 268
195 196 194 188 184 184 182 180 179 178 178 179 180 183 183 183 186 185 179 178 182 184 185 186 188 193 194 191 194 196 196 204 206 200 198 194 183 176 178 178 179 180 180 180 180 180 182 183 187 194 195 192 191 192 193 195 200 201 200 204 203 194 187 192 200 205 216 225 216 208 221 219 202 208 218 225 225 221 238 249 262 284 283 288 291
197 196 191 183 183 186 185 182 180 178 177 177 176 179 181 181 184 184 179 179 182 183 185 186 190 194 193 190 192 194 199 207 203 194 194 195 185 178 178 180 180 179 179 181 182 182 184 184 183 186 194 196 193 191 196 202 207 207 209 214 211 207 204 201 202 203 209 226 229 218 217 210 200 203 199 208 239 236 239 247 244 264 269 270 285
196 194 188 182 183 184 179 178 180 178 175 172 172 176 179 179 181 181 178 180 184 186 188 188 190 194 192 189 190 193 199 204 198 191 192 191 185 181 180 181 180 180 181 182 184 186 186 187 187 185 190 196 194 190 191 199 205 207 214 219 218 220 220 212 211 215 216 226 244 228 207 198 193 186 183 195 231 252 257 274 270 265 272 275 276
193 191 185 180 182 180 172 173 177 175 171 169 170 174 178 178 179 179 179 182 185 187 188 187 190 193 190 186 188 192 199 200 194 190 190 186 183 181 180 181 180 181 184 185 187 188 189 190 191 190 189 192 194 190 186 189 195 197 207 219 219 222 225 220 218 222 224 227 237 229 198 191 183 175 179 192 217 245 254 267 277 277 277 274 262
192 187 180 179 182 179 172 173 175 172 169 169 169 173 177 178 178 178 179 182 185 187 186 185 189 191 188 187 188 190 196 197 192 189 187 183 181 180 181 182 181 182 186 188 189 191 192 192 193 195 193 193 198 197 190 188 190 194 203 213 213 213 221 223 219 217 219 221 219 211 200 194 193 195 200 207 218 237 256 266 267 262 266 274 267
189 183 178 180 182 178 172 172 173 171 170 170 170 173 177 178 177 178 179 181 184 187 186 188 191 191 189 188 184 185 192 194 191 188 185 181 181 183 185 184 182 184 186 188 191 193 194 194 195 197 194 197 206 206 202 199 197 200 206 206 205 206 211 222 224 221 222 225 225 223 219 214 214 217 225 231 229 232 248 261 263 257 264 278 279
187 183 180 181 180 176 173 173 173 173 172 171 172 175 176 177 178 180 181 181 182 185 186 188 190 189 189 186 182 185 191 192 189 187 185 182 181 184 187 184 183 186 186 187 192 195 195 196 196 196 197 202 208 207 207 208 205 207 209 201 199 204 202 207 220 222 225 228 229 231 230 230 230 228 230 236 234 233 238 251 272 277 273 280 282
186 184 184 182 178 174 173 174 175 175 172 172 174 175 175 177 179 181 182 181 180 181 183 182 181 181 183 185 186 190 191 189 188 188 186 184 183 184 188 187 183 185 186 186 191 193 194 198 199 198 201 206 207 205 209 212 207 209 209 199 200 206 200 198 205 209 215 221 227 232 234 237 237 234 235 238 237 236 235 241 261 273 271 281 286
185 185 184 181 176 173 174 176 177 175 173 173 175 175 174 177 179 180 182 183 180 179 179 178 178 178 179 184 188 191 190 189 189 188 187 187 185 184 190 190 185 186 187 186 189 192 191 197 203 205 207 209 208 208 213 212 206 208 207 202 205 207 202 203 205 201 201 210 221 232 232 231 231 231 235 239 240 240 237 236 246 259 267 276 277
184 184 183 179 175 173 175 178 178 176 174 174 174 174 175 179 179 179 182 181 178 179 180 179 179 177 177 184 187 189 192 193 190 188 189 189 186 184 189 194 189 186 188 187 189 192 191 193 205 211 213 215 215 215 217 214 209 208 206 207 211 205 197 200 201 200 209 219 226 234 232 226 224 224 229 235 239 240 239 236 237 243 254 264 270
181 181 180 177 174 174 176 177 178 178 176 173 172 173 177 180 179 180 183 179 177 181 183 179 175 172 171 180 184 186 193 195 190 188 190 190 189 187 187 194 193 186 187 191 190 194 197 196 203 212 215 217 219 221 223 221 216 212 210 213 214 206 201 203 201 209 225 229 228 233 233 227 224 225 227 232 233 231 229 230 230 233 243 252 260
181 181 179 175 172 173 175 177 180 181 179 173 170 172 177 179 179 181 183 179 176 180 182 176 172 167 164 175 182 185 192 195 192 191 190 189 192 192 186 186 191 187 186 192 193 197 200 197 202 212 214 215 220 225 229 227 223 218 215 216 217 213 213 221 230 231 235 235 233 233 231 226 226 229 230 231 233 229 224 224 227 229 238 245 249
181 178 174 169 168 172 174 177 182 184 182 176 170 172 175 176 178 182 184 181 179 179 178 175 172 166 164 173 180 185 192 196 196 196 192 188 193 195 189 185 191 190 188 194 197 199 199 195 201 211 213 213 218 226 231 230 227 225 222 221 222 223 224 228 233 233 234 237 236 233 231 230 230 233 234 233 236 229 217 218 226 231 239 245 246
175 170 166 166 170 172 173 177 181 184 182 176 170 171 174 175 177 179 182 183 182 179 176 175 173 169 166 170 176 181 189 195 198 200 197 193 196 197 194 194 198 194 190 195 199 198 195 195 202 211 214 214 216 222 230 231 228 229 228 225 225 227 228 227 227 229 230 233 234 234 235 233 232 236 238 233 230 221 213 222 233 235 239 244 246
167 164 164 167 169 168 168 172 175 178 181 181 177 175 176 176 177 178 181 184 183 179 173 171 173 172 170 171 174 176 181 190 196 198 199 199 201 199 198 202 206 203 199 200 200 197 196 199 204 209 213 216 217 221 228 231 228 227 228 227 225 223 222 222 222 224 227 230 233 235 235 233 233 235 231 225 229 232 232 236 238 234 234 237 243
161 158 162 165 165 166 168 171 174 177 182 186 184 180 180 180 179 180 181 180 178 175 173 173 174 172 171 173 175 175 177 182 189 195 198 200 201 200 200 204 209 209 208 206 201 198 202 207 210 210 212 216 217 221 226 228 227 226 226 227 225 220 219 219 219 221 227 232 236 236 232 231 232 230 225 228 235 237 235 236 237 235 234 236 246
158 159 165 166 166 169 172 173 175 177 180 183 183 181 183 184 185 187 187 182 177 174 173 175 177 175 176 178 176 176 182 184 186 193 197 197 197 199 201 204 207 208 207 204 200 198 203 209 210 207 207 210 210 213 216 216 218 220 219 222 224 223 222 222 221 223 230 235 237 237 232 230 232 232 234 238 238 236 232 231 234 236 236 241 254
159 161 167 169 170 173 175 176 176 175 175 177 181 185 188 188 189 193 195 192 188 184 178 177 180 181 183 184 182 181 186 189 192 198 199 197 196 198 200 202 204 205 203 199 195 191 193 199 201 199 199 203 205 208 210 208 207 209 208 211 217 220 221 220 220 224 230 233 234 235 234 237 239 238 239 239 237 234 233 230 229 231 232 240 252
164 167 171 173 175 177 178 179 179 175 170 170 175 184 190 191 192 195 197 197 194 191 189 189 189 188 188 189 188 188 190 193 198 202 201 198 198 199 200 202 202 202 202 198 193 192 195 197 200 203 204 208 210 212 213 210 208 208 207 208 212 215 217 218 220 225 227 228 230 233 234 237 239 236 235 234 232 231 230 227 226 224 227 235 244
173 174 176 178 179 178 179 180 179 175 171 170 171 173 177 183 190 197 199 198 194 192 193 195 194 191 190 188 187 190 196 200 204 205 201 199 200 201 203 205 203 202 202 197 192 196 203 203 205 209 210 214 216 217 217 215 213 213 212 211 212 214 215 216 219 221 222 222 227 232 233 234 234 232 232 231 230 231 228 223 222 223 227 234 240
185 184 184 183 180 179 180 179 176 171 167 168 168 165 164 166 173 183 191 193 193 193 194 196 194 190 189 186 186 190 198 203 205 204 201 200 201 202 205 207 205 204 204 198 194 201 206 206 211 214 215 219 220 218 219 221 221 221 219 216 214 214 216 218 219 220 221 223 226 227 228 230 231 231 231 228 227 230 228 223 222 224 227 233 238
190 190 187 181 177 178 180 177 174 169 163 163 166 166 166 167 164 159 164 179 190 194 196 198 196 192 191 191 193 197 200 201 200 200 199 199 200 201 203 206 206 206 202 196 197 206 210 210 216 217 218 221 220 218 220 225 226 226 224 221 220 219 219 220 220 219 222 225 223 219 219 222 224 225 225 222 221 225 228 228 230 230 228 231 235
190 186 180 170 170 177 179 175 172 168 165 166 168 170 173 175 170 160 156 160 171 182 187 193 197 196 196 197 198 201 202 198 194 193 195 197 198 199 200 200 202 205 203 199 201 209 211 211 216 218 218 221 221 220 221 223 224 226 225 224 224 222 221 219 215 211 213 217 218 216 216 218 220 219 217 215 216 221 226 229 231 231 230 231 233
182 180 178 173 170 176 178 175 172 169 168 170 171 172 175 175 172 169 166 163 161 167 176 183 191 197 199 200 200 202 201 195 189 185 187 192 195 195 194 190 189 195 201 204 207 209 209 211 214 215 217 220 220 219 220 219 219 221 221 221 221 221 220 215 207 203 206 211 212 213 214 219 221 219 214 212 214 217 222 226 228 228 228 230 233
166 171 177 178 178 180 179 175 172 171 171 171 172 174 174 173 174 176 176 170 164 165 171 177 183 188 194 198 200 199 194 189 185 179 177 183 188 189 186 182 183 189 196 202 206 208 209 212 214 215 217 219 218 218 218 217 218 219 219 220 220 219 217 212 206 205 208 209 208 210 216 222 222 217 214 215 215 218 224 227 227 226 226 229 233
165 168 174 180 183 184 180 176 174 174 171 169 170 173 174 174 175 176 175 171 166 161 159 163 168 171 176 184 189 188 184 184 185 181 178 181 185 186 184 184 185 188 192 197 202 205 207 211 213 214 216 218 218 218 218 217 218 218 217 218 219 219 218 215 212 210 209 207 208 213 219 223 221 216 215 217 218 221 226 227 226 226 226 227 233
174 174 176 179 181 180 177 177 176 171 166 164 167 171 174 175 176 175 174 172 166 156 152 160 164 163 166 173 180 182 179 178 178 178 179 182 185 186 189 191 191 192 195 199 201 203 205 209 212 215 217 217 217 219 219 218 218 217 215 214 215 216 215 213 211 210 210 212 217 219 219 219 219 216 215 217 219 222 225 226 226 228 226 224 227
180 180 181 180 178 176 175 174 171 165 162 164 169 171 172 174 177 177 173 169 163 156 153 160 166 165 165 170 175 176 172 168 168 172 177 182 186 190 194 196 195 196 198 196 195 199 206 212 215 217 218 218 217 218 219 219 219 218 215 211 209 209 209 208 209 213 216 219 222 221 219 220 220 218 217 218 219 222 226 227 227 231 235 231 224
180 182 182 179 176 174 172 170 166 163 165 168 171 171 171 174 177 177 173 169 165 161 158 162 168 172 172 174 175 173 169 167 170 173 175 178 185 192 198 198 196 194 194 195 197 202 209 214 215 216 217 218 218 219 219 220 221 219 215 210 205 203 205 209 212 214 217 219 221 222 222 222 220 219 218 218 218 222 227 230 230 234 241 240 229
175 175 175 175 174 171 168 166 165 165 167 169 170 171 173 174 176 176 175 172 168 165 164 166 171 176 181 183 181 176 172 172 173 174 176 181 186 191 196 196 193 191 193 200 204 204 206 210 213 215 217 218 218 219 219 219 219 215 210 206 204 205 207 209 211 213 214 216 218 221 223 222 220 220 220 219 219 223 226 229 233 237 237 236 230
164 163 165 171 174 170 164 162 163 164 166 168 168 169 172 174 176 178 177 175 171 168 165 166 172 178 186 188 184 178 175 175 175 177 183 188 190 193 197 199 199 197 198 201 203 202 204 209 213 215 217 217 216 216 216 216 214 210 206 203 204 206 207 207 210 215 218 218 218 219 221 221 221 223 224 222 222 224 226 228 233 235 233 228 224
157 159 163 168 171 167 162 160 159 158 160 164 166 168 170 173 177 180 179 176 174 171 168 168 173 179 185 187 184 177 173 177 180 185 190 195 197 201 204 206 205 201 198 198 201 203 206 209 212 213 215 215 214 213 213 213 211 208 207 206 205 205 206 205 208 215 218 219 218 217 217 218 219 222 222 222 221 222 224 225 225 227 230 227 220
148 152 155 156 157 156 156 156 156 156 159 162 164 166 169 171 174 178 178 175 174 174 172 170 173 176 179 182 181 177 175 180 184 188 194 199 201 204 205 204 202 200 200 203 205 205 205 206 207 209 211 213 214 214 214 215 213 209 208 207 205 205 207 208 209 212 214 215 215 214 213 214 218 221 221 220 219 220 221 220 219 221 226 226 222
138 146 150 149 146 144 146 150 154 155 155 156 157 159 163 167 168 171 171 166 164 167 168 168 170 172 173 176 179 180 180 183 184 185 189 194 197 200 201 200 200 200 200 199 199 200 201 201 201 204 208 211 213 214 214 214 214 212 210 209 209 209 210 212 214 213 212 211 213 214 213 212 214 218 220 219 217 218 219 220 220 221 225 227 225
137 143 147 147 146 145 147 149 151 150 149 150 149 150 154 159 161 164 165 160 155 157 162 166 168 169 169 173 178 180 180 181 184 187 189 191 193 194 194 195 198 200 200 202 205 210 212 210 209 213 217 216 213 212 214 214 214 215 214 214 213 212 213 214 215 213 210 210 212 216 217 215 213 216 219 220 219 220 221 221 218 217 220 223 224
139 138 137 138 141 145 146 145 143 143 145 145 143 142 147 152 152 157 162 160 155 157 162 165 165 164 164 168 173 176 176 178 181 183 184 185 189 191 194 199 206 210 212 215 217 217 216 213 212 216 222 219 212 210 214 216 215 216 216 215 215 215 215 215 213 211 210 211 212 216 218 217 217 218 217 219 223 225 222 217 214 212 214 217 219
129 130 135 138 141 144 143 141 140 141 142 141 138 138 142 147 149 151 154 153 151 153 154 152 150 151 156 163 169 172 176 181 184 187 192 198 203 207 208 210 213 215 215 214 213 212 212 211 210 213 220 220 215 212 215 218 218 217 216 216 217 216 214 212 211 210 210 209 209 212 214 215 219 221 216 216 222 225 219 213 210 207 208 213 216
130 138 146 149 147 142 137 134 138 141 141 138 136 135 139 146 149 147 143 140 143 146 146 144 147 151 158 168 175 179 186 192 196 198 202 204 206 209 210 210 210 211 210 207 206 206 207 208 208 211 218 221 220 217 218 219 219 219 220 220 220 218 214 211 208 207 207 205 204 207 209 210 216 221 220 220 223 224 218 213 208 204 204 208 212
141 147 150 148 143 138 133 132 134 138 138 135 131 129 131 135 138 138 137 140 146 148 149 156 162 162 161 165 172 177 185 191 193 192 192 193 198 207 211 211 210 209 206 203 203 204 204 204 207 212 217 219 220 220 220 221 221 222 222 221 221 223 222 218 213 210 208 204 201 205 207 207 210 216 219 221 220 217 212 209 205 201 201 204 204
131 139 143 142 139 137 135 133 134 138 141 138 133 132 133 135 138 142 145 148 152 154 156 162 166 166 165 168 171 174 181 185 186 185 185 186 192 204 211 211 208 205 203 202 203 206 206 206 210 215 218 218 217 218 220 221 221 221 220 220 224 228 227 221 217 217 215 209 202 204 208 208 209 212 214 213 210 206 204 202 197 196 201 206 203
Height
741 744 746 750 753 757 760 764 768 771 774 777 780 782 785 787 790 793 795 798 800 802 803 805 808 809 811 813 815 817 819 822 824 825 827 828 829 830 830 831 832 833 834 835 836 837 839 841 841 842 843 843 844 844 845 846 847 848 849 849 850 851 852 853 853 855 860 861 862 864 864 865 865 865 865 865 865 865 865 865 865 865 864 864 862
738 740 743 747 750 754 757 761 765 768 771 775 777 780 782 785 788 790 793 795 797 799 801 803 805 806 809 811 814 816 818 820 822 824 825 826 827 828 829 830 832 832 833 834 835 837 838 839 840 841 841 842 843 843 844 845 846 847 848 848 849 851 852 853 853 855 858 860 862 863 863 864 864 864 864 864 864 864 864 864 864 864 864 863 862
735 738 741 744 747 751 754 758 761 765 768 771 774 777 779 782 785 788 790 792 794 796 799 801 802 804 806 809 811 814 816 819 821 822 824 825 826 827 828 830 831 831 832 833 834 836 837 838 839 839 840 841 842 843 843 844 845 845 846 847 849 850 851 853 853 854 857 859 860 861 862 863 863 863 863 863 864 864 863 863 863 863 863 863 862
733 736 739 742 745 748 751 754 758 761 764 768 771 774 776 778 782 785 787 790 792 794 797 799 800 802 804 806 808 811 814 817 819 821 822 823 825 826 827 829 829 830 831 832 833 834 835 836 837 838 839 840 841 842 843 843 844 845 846 847 848 849 851 852 853 854 855 857 859 860 860 862 862 862 862 863 863 863 863 863 862 862 862 862 862
729 732 736 739 742 745 748 751 754 757 761 764 768 771 772 775 779 782 785 787 789 791 794 796 798 800 802 804 806 809 812 815 817 819 820 822 823 824 825 827 828 829 829 830 831 833 834 835 836 837 839 840 841 841 842 843 844 844 845 846 847 849 850 851 853 854 855 856 857 859 860 861 862 862 862 862 862 861 861 861 861 861 861 861 860
726 729 732 735 738 742 745 748 751 754 757 761 765 768 769 772 776 779 782 785 786 788 791 793 796 798 800 802 805 807 810 813 816 817 818 820 821 822 824 826 827 827 828 829 830 831 832 833 835 836 838 839 840 841 841 843 843 844 845 846 847 848 849 851 852 853 854 855 856 858 859 860 861 861 862 862 861 860 859 859 860 860 860 860 859
722 725 728 732 735 738 741 744 748 751 755 758 762 764 766 770 773 776 779 782 783 785 788 791 793 796 798 800 803 806 809 812 814 815 816 818 819 820 822 824 825 826 827 828 829 830 831 833 834 836 838 838 839 840 841 842 844 844 845 846 846 847 848 850 851 852 854 855 856 857 858 859 860 860 860 861 861 860 859 858 858 858 858 859 858
719 722 725 728 731 735 738 741 745 749 752 755 759 762 764 767 771 773 777 779 781 783 786 789 791 794 796 798 801 804 807 810 811 812 814 816 817 819 820 822 823 824 826 827 828 829 830 832 834 835 837 838 838 839 841 842 843 844 845 845 846 847 848 849 850 852 853 854 855 856 857 858 859 859 860 860 860 858 858 858 857 857 857 857 857
716 719 722 725 728 731 734 739 742 746 749 752 756 759 762 765 768 771 774 777 778 781 784 787 789 792 794 796 799 801 804 807 809 810 812 814 816 817 819 820 822 823 824 825 827 828 829 831 833 835 836 836 837 838 840 841 843 844 844 845 846 847 847 849 851 852 852 853 853 854 855 856 857 858 858 859 858 858 858 858 858 857 857 856 856
712 716 719 722 725 728 731 736 740 743 747 750 753 757 759 762 765 768 771 774 776 780 783 785 787 789 791 794 797 799 802 805 806 808 810 812 814 815 817 819 820 822 823 824 825 827 829 831 832 833 834 835 836 837 839 840 841 842 843 844 845 846 847 849 851 851 851 851 852 853 854 854 855 856 857 857 858 858 858 858 857 856 856 855 854
708 712 715 718 722 725 728 733 737 741 744 747 750 754 757 759 763 766 768 772 775 778 781 783 785 787 789 792 795 797 801 802 803 806 808 810 812 814 815 817 819 820 822 823 824 826 828 830 831 832 833 835 836 837 838 839 840 841 842 843 844 844 846 848 850 851 851 851 851 852 853 853 854 856 856 857 857 858 858 857 857 856 855 854 852
705 708 712 715 719 723 726 730 733 737 740 743 747 751 754 757 760 763 766 769 773 776 778 780 783 785 787 790 792 796 798 799 801 804 806 808 810 812 814 816 817 819 820 821 823 825 827 829 830 831 832 833 835 836 837 838 839 840 841 842 843 844 845 847 848 849 850 850 850 851 852 852 854 855 856 856 856 857 857 857 857 856 855 854 853
702 705 709 712 716 720 723 726 730 733 737 740 744 748 751 753 757 760 763 767 770 773 776 778 780 782 785 788 791 794 796 797 800 803 804 806 808 811 813 814 816 817 818 820 822 823 825 827 828 830 831 832 834 835 836 837 838 840 841 842 843 844 845 846 846 847 848 849 850 850 851 852 853 854 855 856 856 856 856 856 856 856 855 854 853
698 702 705 709 713 718 720 723 727 730 733 736 740 744 747 750 754 757 760 764 768 770 773 776 778 780 783 786 789 792 794 795 798 801 802 804 807 809 812 813 814 816 817 819 821 822 824 825 827 828 829 831 832 834 835 836 838 839 841 842 843 844 844 845 846 847 848 849 850 850 851 852 852 853 854 855 856 856 856 856 856 856 855 854 853
694 698 702 706 710 714 717 720 724 727 729 733 737 741 744 747 751 754 758 761 764 767 771 773 775 778 780 784 787 790 791 793 796 798 800 803 805 808 811 812 813 815 816 818 820 821 823 824 825 827 828 829 831 832 834 836 837 839 839 840 842 843 844 844 845 846 847 849 850 850 850 851 852 853 854 854 855 855 856 856 856 855 854 853 851
691 695 698 702 707 710 713 716 720 723 726 729 733 738 742 745 748 752 755 758 762 765 768 771 773 775 778 782 785 787 788 791 794 796 799 801 804 807 809 811 812 813 815 817 818 820 821 822 824 825 826 828 829 830 832 834 836 837 838 839 840 842 843 843 843 844 846 847 849 849 849 850 851 852 852 853 853 854 855 855 855 854 853 851 849
687 691 695 699 703 706 708 712 716 719 723 726 730 735 738 742 745 749 752 755 759 762 765 768 771 773 776 779 782 784 786 789 792 794 797 800 803 806 808 809 810 812 813 815 817 818 819 821 822 824 825 826 827 828 831 833 834 836 836 838 839 840 841 842 842 843 845 846 847 848 849 849 850 850 851 852 852 853 854 853 852 852 851 849 846
682 686 691 695 699 701 704 708 712 716 719 723 727 732 736 739 743 746 749 752 756 759 763 766 769 772 774 777 778 780 783 787 790 793 795 798 801 804 806 807 808 810 811 813 815 816 817 818 820 822 823 824 825 827 829 831 833 834 835 836 837 838 839 840 841 842 844 845 846 847 848 848 849 849 850 850 851 851 852 852 851 850 849 847 846
677 681 686 691 694 697 700 705 709 713 717 721 725 729 733 737 740 743 746 749 753 757 761 764 766 769 772 773 775 777 781 785 788 790 793 796 798 801 803 804 806 807 809 811 812 814 815 816 818 821 822 822 824 826 828 830 832 833 834 835 836 836 838 839 840 841 842 844 845 846 846 847 847 848 848 849 849 850 850 851 851 850 848 847 846
674 678 683 687 690 694 698 702 706 710 715 719 723 727 731 735 738 741 744 747 750 754 757 760 763 766 769 770 772 776 779 782 785 788 791 793 796 799 801 802 803 805 807 808 810 812 813 815 817 819 820 821 823 826 827 829 831 832 833 834 835 835 836 838 839 840 841 842 843 844 845 845 845 846 846 846 847 848 848 849 850 849 848 847 846
672 677 681 684 688 692 696 700 704 709 713 717 722 726 729 733 736 738 741 745 747 750 754 758 761 764 766 768 770 774 777 779 782 785 788 790 793 796 798 800 801 803 804 806 808 810 811 813 815 816 818 820 822 824 826 827 829 830 831 832 833 834 835 836 837 838 840 841 842 843 843 843 843 844 844 844 845 846 846 847 848 848 847 846 845
670 674 678 681 685 689 694 698 703 708 712 716 720 724 728 731 734 737 740 742 744 747 752 756 758 761 764 766 768 772 775 778 780 783 785 788 790 793 796 798 799 801 803 804 806 808 810 811 813 814 816 819 821 823 824 826 827 828 830 831 831 832 834 835 836 837 838 839 840 841 841 840 841 841 842 842 843 843 844 844 845 846 846 845 845
667 671 675 679 683 688 692 697 702 706 711 715 718 722 726 729 732 735 737 739 741 745 750 753 755 758 761 763 766 770 773 776 778 780 783 785 788 790 793 796 798 800 801 803 804 806 808 809 811 812 815 817 819 821 823 824 825 826 828 829 830 831 833 834 835 836 837 837 838 838 838 838 838 838 839 840 840 840 841 842 843 844 844 844 844
664 668 673 677 681 687 691 696 701 705 709 713 716 720 724 727 730 733 734 736 738 742 747 750 752 755 758 761 765 768 771 774 777 779 781 783 785 788 791 794 796 798 800 801 803 804 806 808 809 811 813 815 817 819 821 822 823 824 826 827 828 830 832 833 834 835 835 836 836 835 835 836 836 836 837 837 838 838 839 840 841 842 842 842 842
663 667 671 675 680 685 690 695 700 704 708 711 713 717 721 724 727 729 732 734 736 740 743 746 749 752 755 758 762 766 769 772 774 777 780 782 783 786 790 792 794 797 799 801 802 803 804 806 808 810 812 814 816 817 819 820 821 822 824 825 827 828 830 831 832 833 833 833 834 834 833 834 834 835 835 836 836 836 837 839 840 840 840 840 840
661 665 669 673 677 682 687 692 696 701 707 711 713 715 718 721 723 726 729 732 734 736 740 743 746 749 752 755 759 763 766 769 772 774 777 780 782 785 788 790 793 795 797 799 800 802 803 805 807 808 810 812 814 815 816 817 819 820 821 823 825 826 828 828 829 830 831 831 831 831 831 831 832 833 834 834 835 836 836 837 837 837 837 838 838
660 662 666 669 673 677 681 684 687 692 700 708 712 714 717 719 721 723 726 728 730 733 736 739 743 746 749 753 757 760 763 766 769 771 773 776 779 782 786 788 791 793 796 798 799 801 802 804 805 807 809 810 812 813 814 815 816 818 819 820 822 823 824 825 827 828 828 828 828 828 828 829 830 831 832 833 833 834 834 835 834 834 834 835 835
657 660 662 666 669 672 675 678 681 685 691 699 705 709 712 715 717 718 720 721 724 728 732 736 738 741 745 750 754 757 760 762 764 765 768 771 775 779 782 784 787 790 793 795 798 800 801 802 804 806 807 809 810 812 813 813 814 815 816 817 819 820 821 823 824 825 826 826 826 826 826 827 828 829 830 830 831 831 832 832 832 832 833 833 833
656 659 662 665 668 671 674 677 680 682 686 692 698 703 706 710 712 714 715 717 719 724 728 732 735 739 742 745 748 751 754 756 757 760 764 767 771 774 777 780 783 786 789 793 796 798 799 800 802 803 805 806 808 809 810 811 812 813 813 815 816 817 818 820 821 822 823 823 824 824 825 826 826 827 827 827 828 828 829 829 830 831 831 832 831
655 658 661 664 667 669 673 676 679 680 681 686 693 699 704 708 710 711 714 716 718 721 725 729 732 735 738 741 744 746 749 751 754 758 762 765 768 771 774 777 780 783 787 790 793 795 796 797 799 800 801 803 804 805 806 807 808 809 810 811 813 814 815 816 817 819 820 820 821 822 822 823 823 823 824 824 825 825 826 827 827 828 829 830 829
655 657 659 662 664 667 670 674 677 678 679 683 689 696 702 706 709 711 713 716 718 721 724 728 731 734 736 739 741 744 747 750 753 756 759 763 767 771 774 777 780 782 785 788 791 793 793 794 795 797 798 799 800 801 802 803 804 805 807 808 809 810 811 813 814 815 816 817 818 819 819 820 820 820 820 821 822 823 824 824 825 826 826 827 827
653 655 658 661 663 666 670 673 675 676 679 683 688 694 699 704 709 712 715 718 720 722 725 728 731 733 735 737 739 742 746 749 751 755 759 763 767 770 773 776 779 782 784 787 789 790 791 791 792 793 794 795 796 798 799 800 801 802 803 804 805 807 808 809 810 812 813 814 815 816 817 817 818 818 819 819 820 821 822 822 823 823 824 824 824
651 654 658 661 663 666 670 672 674 675 677 680 685 691 696 701 706 711 715 718 721 723 725 726 729 731 734 736 738 741 744 747 751 754 758 762 765 769 772 775 778 780 783 785 787 787 788 789 789 790 791 792 793 794 796 797 797 798 799 800 802 803 804 805 807 808 809 810 811 812 813 814 815 816 817 818 818 819 819 820 820 820 820 820 821
651 653 656 659 663 666 668 670 671 673 675 679 683 688 694 698 702 706 711 715 719 722 723 725 727 730 733 735 737 740 743 746 750 753 757 760 764 767 770 774 777 779 781 783 784 784 785 785 786 787 788 789 790 791 792 793 795 795 796 797 798 799 800 802 803 804 806 807 808 809 810 812 812 813 814 815 815 816 817 817 818 818 817 817 818
649 651 654 657 661 665 667 668 668 670 674 678 682 687 692 696 700 703 705 709 714 718 721 724 726 729 731 734 736 739 742 746 749 752 754 758 761 764 768 771 774 777 778 780 780 781 782 782 783 784 785 786 787 788 789 790 791 792 793 794 795 796 797 798 799 801 802 804 805 806 807 809 810 810 811 811 812 813 813 814 814 815 815 815 815
648 650 652 655 658 661 663 665 666 669 673 677 681 685 689 693 697 700 703 706 710 715 719 722 724 727 730 733 736 738 741 744 747 750 752 755 758 761 765 768 771 773 774 776 777 778 779 780 780 781 782 783 784 785 786 787 788 789 790 791 792 793 794 795 797 798 799 801 802 803 804 806 806 807 808 808 809 809 810 811 811 811 812 812 813
649 650 651 653 656 659 661 663 665 668 672 676 680 684 688 691 695 698 702 705 707 711 715 719 722 725 728 731 734 737 740 743 746 749 752 754 756 759 762 765 767 769 770 772 773 775 776 777 778 778 779 780 781 782 783 784 785 786 787 788 789 790 791 792 794 795 796 797 799 800 801 802 803 804 805 805 806 806 807 807 808 809 809 810 811
650 650 650 652 655 658 661 663 666 668 671 675 678 682 685 689 692 695 698 702 705 708 712 716 720 722 725 728 732 735 738 742 745 748 751 753 755 758 760 762 763 765 767 768 770 772 773 774 775 776 777 777 778 779 780 781 782 783 784 785 786 787 789 790 792 793 794 795 796 797 798 799 800 801 802 802 803 804 804 805 805 806 807 808 808
650 650 651 652 654 657 659 662 665 668 671 674 677 680 683 686 690 693 695 699 702 706 709 714 718 720 722 725 728 732 735 739 742 745 748 750 753 755 757 759 760 761 763 765 767 768 770 771 772 774 774 775 776 777 778 779 780 780 781 782 784 785 786 788 789 790 791 792 793 794 795 796 797 798 798 799 800 801 801 802 803 803 804 805 805
649 650 652 654 656 657 659 661 664 668 670 673 676 679 681 685 689 692 694 697 699 702 706 711 715 717 719 721 724 727 731 735 738 741 744 746 749 752 754 755 756 758 760 762 763 765 767 768 770 771 772 773 774 775 776 776 777 778 779 780 781 782 784 785 786 787 788 789 790 791 792 793 793 794 795 796 797 798 799 799 800 801 802 802 802
650 651 653 655 657 658 660 662 664 667 670 673 674 677 680 684 688 691 694 696 699 701 704 708 712 714 717 719 721 724 727 731 734 737 740 743 746 749 750 751 752 754 757 759 761 763 764 766 767 768 769 770 771 772 773 774 775 776 776 777 778 780 781 782 784 784 785 786 787 788 789 790 791 791 792 793 794 795 796 797 797 798 799 799 800
651 653 654 657 659 660 661 663 665 667 669 672 673 675 679 684 688 690 693 695 697 699 703 706 709 711 714 717 720 723 726 728 731 734 737 740 743 744 746 747 749 751 754 757 758 760 762 763 765 766 767 768 769 770 771 771 772 773 774 775 776 777 778 780 781 781 782 784 784 785 786 787 788 789 790 790 792 793 793 794 795 795 796 797 797
653 655 656 658 659 660 662 663 664 666 669 671 673 676 679 683 687 690 692 693 695 697 700 703 706 709 713 716 719 722 724 726 728 731 734 736 738 740 742 744 747 750 752 754 756 758 760 761 762 763 764 765 766 767 768 769 769 770 771 772 773 774 775 777 778 778 779 781 782 782 783 785 786 786 787 788 789 790 790 791 792 793 793 794 795
654 656 657 659 660 661 663 664 666 668 670 672 675 677 680 683 686 689 691 693 696 698 700 701 703 707 710 714 717 720 721 723 726 729 731 734 736 738 741 743 746 748 750 752 754 756 757 758 759 760 762 763 764 765 765 766 767 767 768 769 770 771 772 773 775 776 777 778 779 780 781 782 783 784 784 785 786 787 788 788 789 790 791 792 793
656 657 659 661 663 663 665 666 668 670 672 674 676 679 682 684 686 689 691 692 695 699 702 704 705 706 709 712 715 718 720 722 725 727 730 732 735 737 739 742 744 746 748 750 751 753 754 755 756 758 759 761 762 762 763 764 764 765 765 766 767 768 769 770 772 773 774 775 776 778 778 779 780 781 781 782 783 784 785 786 787 788 789 790 790
659 659 661 663 664 665 666 668 670 672 674 675 677 680 683 684 686 688 690 692 694 697 701 704 706 708 710 712 714 716 718 720 723 725 728 730 732 735 737 739 740 742 745 747 748 750 751 752 754 755 757 758 759 760 760 761 762 763 763 764 765 766 767 768 769 771 772 773 774 775 776 776 777 778 779 780 781 781 782 783 784 785 786 787 788
663 664 664 665 666 667 667 669 671 673 675 677 678 680 683 685 686 689 691 692 694 697 700 702 704 706 709 711 712 714 716 719 722 724 726 728 730 732 734 735 737 740 742 744 746 747 748 750 751 753 754 756 757 758 758 759 760 761 761 762 763 764 765 766 767 768 769 770 771 772 773 774 775 776 777 777 778 779 779 780 780 782 783 784 785
666 667 668 669 670 670 670 670 672 674 676 678 679 680 682 685 687 689 691 693 695 697 699 701 702 704 707 709 711 713 716 718 720 721 723 725 727 729 731 733 736 739 740 742 744 745 746 748 750 751 752 753 754 755 756 757 758 758 759 759 760 761 762 763 765 766 767 767 769 770 771 772 773 774 774 775 775 776 776 777 777 779 780 782 782
667 668 669 671 672 672 672 673 674 675 677 678 679 681 683 685 687 689 691 693 695 696 697 699 701 705 708 709 710 712 714 716 718 720 722 723 725 727 729 732 734 736 738 740 742 743 745 746 748 749 750 751 752 753 755 755 756 756 756 757 757 758 759 761 762 763 764 765 766 768 769 770 771 772 772 773 773 773 774 774 775 776 778 779 780
668 668 669 671 671 672 673 673 675 677 678 678 680 682 684 686 687 689 691 693 695 696 697 699 703 705 707 708 710 711 713 715 717 719 720 722 724 726 728 730 732 734 736 738 739 741 742 744 745 746 747 748 750 751 752 753 753 753 754 754 754 755 756 758 759 760 762 763 765 766 767 768 769 770 770 771 771 771 772 772 773 774 775 776 778
671 671 671 672 672 672 672 673 674 677 679 679 680 682 684 687 689 690 692 694 696 698 700 701 703 705 706 708 709 711 713 714 716 717 719 721 722 724 726 728 730 731 733 735 737 738 740 741 742 743 745 746 747 749 750 750 750 750 751 751 752 752 754 755 757 758 759 761 763 764 765 766 767 768 769 769 769 770 770 771 771 772 773 774 775